This demonstration page uses our WeatherBlox Daily Observations layout. Learn more.

Left ArrowRight Arrow

34.74481, -87.66753

Hourly Observations for July 23, 2020

Temp ( °F °C ) Dew Point ( °F °C ) Humidity (%) Winds ( mph kmh ) Pressure ( in mb ) Visibility ( mi km ) Precip ( " mm )
12:53 am 00:53 Clear 76 24.4 73 22.8 91 91 ESE 3 6 30.06 1018 10 16 0.00 0.00
1:53 am 01:53 Clear 75 23.9 72 22.2 90 90 Calm 30.05 1018 10 16 0.00 0.00
2:53 am 02:53 Clear 74 23.3 72 22.2 94 94 E 5 7 30.04 1017 10 16 0.00 0.00
3:53 am 03:53 Clear 74 23.3 71 21.7 91 91 SE 5 7 30.05 1018 10 16 0.00 0.00
4:53 am 04:53 Clear 74 23.3 71 21.7 91 91 Calm 30.08 1019 10 16 0.00 0.00
5:53 am 05:53 Clear 73 22.8 70 21.1 90 90 E 3 6 30.09 1019 10 16 0.00 0.00
6:53 am 06:53 Mostly Sunny 75 23.9 72 22.2 90 90 Calm 30.10 1019 10 16 0.00 0.00
7:53 am 07:53 Sunny 79 26.1 72 22.2 79 79 Calm 30.11 1020 10 16 0.00 0.00
8:53 am 08:53 Sunny 82 27.8 73 22.8 74 74 SSW 3 6 30.12 1020 10 16 0.00 0.00
9:53 am 09:53 Sunny 85 29.4 73 22.8 68 68 VRB 3 6 30.12 1020 10 16 0.00 0.00
10:53 am 10:53 Sunny 88 31.1 73 22.8 61 61 Calm 30.12 1020 10 16 0.00 0.00
11:53 am 11:53 Sunny 90 32.2 73 22.8 58 58 VRB 3 6 30.11 1020 10 16 0.00 0.00
12:53 pm 12:53 Sunny 91 32.8 72 22.2 54 54 VRB 3 6 30.09 1019 10 16 0.00 0.00
1:53 pm 13:53 Sunny 93 33.9 71 21.7 49 49 E 6 9 30.06 1018 10 16 0.00 0.00
2:53 pm 14:53 Mostly Sunny 94 34.4 72 22.2 49 49 SSE 8 13 30.04 1017 10 16 0.00 0.00
3:53 pm 15:53 Sunny 94 34.4 69 20.6 44 44 SSE 7 11 30.03 1017 10 16 0.00 0.00
4:53 pm 16:53 Sunny 94 34.4 70 21.1 46 46 S 7 11 30.04 1017 10 16 0.00 0.00
5:53 pm 17:53 Sunny 93 33.9 70 21.1 47 47 SE 5 7 30.03 1017 10 16 0.00 0.00
6:53 pm 18:53 Mostly Cloudy 87 30.6 75 23.9 67 67 NNE 8 13 30.04 1017 10 16 0.00 0.00
7:53 pm 19:53 Sunny 83 28.3 73 22.8 72 72 NE 7 11 30.04 1017 10 16 0.00 0.00
8:53 pm 20:53 Clear 82 27.8 74 23.3 77 77 NE 5 7 30.05 1018 10 16 0.00 0.00
9:53 pm 21:53 Clear 81 27.2 75 23.9 82 82 Calm 30.07 1018 10 16 0.00 0.00
10:53 pm 22:53 Clear 80 26.7 74 23.3 82 82 E 5 7 30.07 1018 10 16 0.00 0.00
11:53 pm 23:53 Partly Cloudy 79 26.1 74 23.3 85 85 SSE 8 13 30.09 1019 10 16 0.00 0.00

Powered by AerisWeather